Location: C�mpuri de-Sus
(45.9500°N, 22.5500°E)
Time: 12:11:17
(UTC+00:00)

deb Chang Zheng 4 - Pass Details

Date: 24 October 2021
Orbit: 595 x 616 km, 98.6° (Epoch: 06 December)

Event Time Altitude Azimuth Distance (km) Brightness Sun altitude
Rises 16:03:49 0° 154° (SSE) 2,825 6.8 -6.8°
Reaches altitude 10° 16:05:59 10° 151° (SSE) 1,929 5.9 -7.2°
Maximum altitude 16:10:05 59° 72° (ENE) 695 3.5 -7.9°
Drops below altitude 10° 16:14:16 10° 353° (N) 1,955 6.1 -8.6°
Sets 16:16:28 0° 350° (N) 2,867 7.0 -9.0°
